CLUSTER II-FM7 (SAMBA)

Last updated on Aug. 11, 2020, 5:37 a.m. UTC

1 26410U 00041A   20225.89265528 -.00000025  00000-0  00000-0 0  9992
2 26410 132.0129 342.0726 4459442 184.7116 359.4198  0.44221502 10838
UTC
Height (km)
Latitude
Longitude
Inclination
Orbital Period
UTC large
Height (km)
Speed (km/s)
/
Latitude / Longitude
Inclination (degrees)
Orbital Period (minutes)
Azimuth
Elevation
Range (km)
Doppler Factor
iOS Compass Heading
iOS Angle

Next 30 passes for location: Hong Kong

Rise time Rise Azimuth (degrees) Set time Set Azimuth (degrees) Duration Max altitude (degrees)

No matching passes for this satellites